Istanbul, Turkey

3:50 AM +03 on December 05, 2016 (GMT +0300)
Ataturk

Weather History for LTBA - March, 2014

Change the Weather History Date:

Saturday, March 29, 2014

  Actual Average Record
Temperature  
Mean Temperature 50 °F -  
Max Temperature 59 °F 52 °F 66 °F (2006)
Min Temperature 42 °F 41 °F 37 °F (2003)
Degree Days  
Heating Degree Days 14    
Moisture  
Dew Point 40 °F    
Average Humidity 69    
Maximum Humidity 94    
Minimum Humidity 31    
Precipitation  
Precipitation 0.02 in - - ()
Sea Level Pressure  
Sea Level Pressure 30.02 in    
Wind  
Wind Speed 11 mph ()    
Max Wind Speed 25 mph    
Max Gust Speed 33 mph    
Visibility 5.9 miles    
Events Rain    
Averages and records for this station are not official NWS values.
T = Trace of Precipitation, MM = Missing Value Source: Averaged Metar Reports

Daily Weather History Graph

Daily Weather History Graph

Search for Another Location

Airport or City:

Trip Planner

Search our weather history database for the weather conditions in past years. The results will help you decide how hot, cold, wet, or windy it might be!

Date:

Astronomy

Mar. 29, 2014 Rise Set
Actual Time 5:53 AM EET 6:26 PM EET
Civil Twilight 5:26 AM EET 6:53 PM EET
Nautical Twilight 4:53 AM EET 7:26 PM EET
Astronomical Twilight 4:20 AM EET 8:00 PM EET
Moon 4:50 AM EET (3/29) 5:08 PM EET (3/29)
Length of Visible Light 13h 27m
Length of Day
12h 32m
Waning Crescent, 3% of the Moon is Illuminated
Mar 29
Waning Crescent
Mar 30
New
Apr 7
First Quarter
Apr 15
Full
Apr 22
Last Quarter

Hourly Weather History & Observations

Time (EET) Temp. Windchill Dew Point Humidity Pressure Visibility Wind Dir Wind Speed Gust Speed Precip Events Conditions
12:20 AM 50.0 °F - 48.2 °F 94% 29.89 in 6.2 mi North 10.4 mph - N/A   Mostly Cloudy
12:50 AM 50.0 °F - 48.2 °F 94% 29.89 in 6.2 mi North 11.5 mph - N/A   Mostly Cloudy
1:20 AM 51.8 °F - 48.2 °F 88% 29.92 in 6.2 mi North 11.5 mph - N/A   Mostly Cloudy
1:50 AM 51.8 °F - 48.2 °F 88% 29.92 in 6.2 mi North 9.2 mph - N/A   Mostly Cloudy
2:00 AM 51 °F - 47 °F 83% 29.92 in 6 mi North 9.2 mph - -   Partly Cloudy
2:20 AM 50.0 °F - 48.2 °F 94% 29.92 in 6.2 mi North 12.7 mph - N/A   Mostly Cloudy
2:50 AM 50.0 °F - 48.2 °F 94% 29.89 in 6.2 mi North 10.4 mph - N/A   Mostly Cloudy
3:20 AM 50.0 °F - 46.4 °F 87% 29.89 in 6.2 mi North 9.2 mph - N/A   Mostly Cloudy
3:50 AM 48.2 °F - 46.4 °F 93% 29.89 in 6.2 mi North 8.1 mph - N/A   Mostly Cloudy
4:20 AM 50.0 °F - 44.6 °F 82% 29.89 in 6.2 mi North 8.1 mph - N/A   Mostly Cloudy
4:50 AM 50.0 °F - 44.6 °F 82% 29.89 in 6.2 mi North 8.1 mph - N/A   Mostly Cloudy
5:00 AM 50 °F - 44 °F 75% 29.91 in 6 mi North 8.1 mph - -   Partly Cloudy
5:20 AM 50.0 °F - 44.6 °F 82% 29.89 in 6.2 mi North 8.1 mph - N/A   Mostly Cloudy
5:50 AM 48.2 °F - 44.6 °F 87% 29.92 in 6.2 mi NNW 8.1 mph - N/A   Mostly Cloudy
6:20 AM 48.2 °F - 46.4 °F 93% 29.92 in 6.2 mi NNW 5.8 mph - N/A   Mostly Cloudy
6:50 AM 50.0 °F - 46.4 °F 87% 29.92 in 6.2 mi NNW 3.5 mph - N/A   Mostly Cloudy
7:20 AM 50.0 °F - 46.4 °F 87% 29.92 in 6.2 mi NNW 3.5 mph - N/A   Mostly Cloudy
7:50 AM 50.0 °F - 46.4 °F 87% 29.92 in 6.2 mi NW 3.5 mph - N/A   Mostly Cloudy
8:00 AM 51 °F - 46 °F 77% 29.95 in 6 mi NW 2.3 mph - -   Partly Cloudy
8:20 AM 51.8 °F - 46.4 °F 82% 29.95 in 6.2 mi NNW 8.1 mph - N/A   Mostly Cloudy
8:50 AM 51.8 °F - 44.6 °F 76% 29.95 in 6.2 mi NNW 6.9 mph - N/A   Mostly Cloudy
9:20 AM 51.8 °F - 46.4 °F 82% 29.95 in 6.2 mi NNW 11.5 mph - N/A   Mostly Cloudy
9:50 AM 51.8 °F - 48.2 °F 88% 29.95 in 5.0 mi NNW 13.8 mph - N/A Rain Light Rain Showers
10:20 AM 51.8 °F - 48.2 °F 88% 29.98 in 4.3 mi NNW 13.8 mph - N/A Rain Light Rain Showers
10:37 AM 51.8 °F - 46.4 °F 82% 29.98 in 2.5 mi North 16.1 mph - N/A Rain Light Rain Showers
10:50 AM 50.0 °F - 46.4 °F 87% 29.98 in 2.5 mi North 16.1 mph - N/A Rain Light Rain Showers
11:00 AM 50 °F - 47 °F 87% 29.99 in 2 mi North 16.1 mph - - Rain Light Rain Showers
11:20 AM 51.8 °F - 46.4 °F 82% 29.98 in 3.7 mi North 15.0 mph - N/A Rain Light Rain Showers
11:50 AM 55.4 °F - 48.2 °F 77% 29.98 in 6.2 mi North 17.3 mph - N/A   Scattered Clouds
12:20 PM 57.2 °F - 42.8 °F 59% 30.01 in 6.2 mi North 18.4 mph 33.4 mph N/A   Partly Cloudy
12:50 PM 57.2 °F - 37.4 °F 48% 30.01 in 6.2 mi North 23.0 mph - N/A   Scattered Clouds
1:20 PM 57.2 °F - 37.4 °F 48% 30.01 in 6.2 mi NNE 18.4 mph 32.2 mph N/A   Scattered Clouds
1:50 PM 57.2 °F - 37.4 °F 48% 30.01 in 6.2 mi NNE 21.9 mph - N/A   Partly Cloudy
2:00 PM 58 °F - 36 °F 31% 30.01 in 6 mi NNE 21.9 mph - -   Partly Cloudy
2:20 PM 57.2 °F - 41.0 °F 55% 30.01 in 6.2 mi North 21.9 mph 33.4 mph N/A   Partly Cloudy
2:50 PM 55.4 °F - 41.0 °F 58% 30.04 in 6.2 mi North 25.3 mph - N/A   Partly Cloudy
3:20 PM 53.6 °F - 41.0 °F 62% 30.04 in 6.2 mi NNE 24.2 mph - N/A   Partly Cloudy
3:50 PM 53.6 °F - 39.2 °F 58% 30.06 in 6.2 mi NNE 24.2 mph - N/A   Scattered Clouds
4:20 PM 51.8 °F - 37.4 °F 58% 30.09 in 6.2 mi NNE 21.9 mph - N/A   Scattered Clouds
4:50 PM 50.0 °F - 35.6 °F 58% 30.09 in 6.2 mi NNE 23.0 mph - N/A   Scattered Clouds
5:00 PM 50 °F - 36 °F 47% 30.12 in 6 mi NNE 23.0 mph - -   Partly Cloudy
5:20 PM 48.2 °F - 33.8 °F 58% 30.09 in 6.2 mi NNE 21.9 mph 33.4 mph N/A   Scattered Clouds
5:50 PM 48.2 °F - 33.8 °F 58% 30.12 in 6.2 mi NE 20.7 mph - N/A   Scattered Clouds
6:20 PM 46.4 °F 39.0 °F 32.0 °F 57% 30.12 in 6.2 mi NE 19.6 mph - N/A   Scattered Clouds
6:50 PM 46.4 °F 39.5 °F 28.4 °F 50% 30.15 in 6.2 mi NE 17.3 mph - N/A   Scattered Clouds
7:20 PM 46.4 °F 39.5 °F 28.4 °F 50% 30.15 in 6.2 mi NE 17.3 mph - N/A   Scattered Clouds
7:50 PM 44.6 °F 38.1 °F 26.6 °F 49% 30.18 in 6.2 mi NE 13.8 mph - N/A   Scattered Clouds
8:00 PM 45 °F - 29 °F 40% 30.20 in 6 mi NE 13.8 mph - -   Partly Cloudy
8:20 PM 44.6 °F 38.8 °F 28.4 °F 53% 30.18 in 6.2 mi Variable 11.5 mph - N/A   Scattered Clouds
8:50 PM 44.6 °F 38.1 °F 26.6 °F 49% 30.21 in 6.2 mi NNE 13.8 mph - N/A   Scattered Clouds
9:20 PM 42.8 °F 35.8 °F 26.6 °F 53% 30.21 in 6.2 mi NE 13.8 mph - N/A   Scattered Clouds
9:50 PM 42.8 °F 36.6 °F 26.6 °F 53% 30.21 in 6.2 mi NE 11.5 mph 24.2 mph N/A   Scattered Clouds
10:20 PM 42.8 °F 35.8 °F 24.8 °F 49% 30.21 in 6.2 mi NE 13.8 mph - N/A   Scattered Clouds
10:50 PM 42.8 °F 36.6 °F 23.0 °F 46% 30.21 in 6.2 mi NE 11.5 mph - N/A   Scattered Clouds
11:00 PM 42 °F - 24 °F 36% 30.25 in 6 mi NE 11.5 mph - -   Partly Cloudy
11:20 PM 42.8 °F 37.5 °F 24.8 °F 49% 30.24 in 6.2 mi NE 9.2 mph - N/A   Scattered Clouds
11:50 PM 42.8 °F 38.6 °F 24.8 °F 49% 30.24 in 6.2 mi NE 6.9 mph - N/A   Scattered Clouds